Location: Aghk�ilisa
(40.0189°N, 45.0097°E)
Time: 22:32:55
(UTC+00:00)

CZ-4 R/B - Pass Details

Date: 21 October 2019
Orbit: 530 x 601 km, 97.8° (Epoch: 13 November)

Event Time Altitude Azimuth Distance (km) Brightness Sun altitude
Rises 15:05:19 0° 159° (SSE) 2,801 4.8 -10.8°
Reaches altitude 10° 15:07:28 10° 156° (SSE) 1,914 3.9 -11.2°
Maximum altitude 15:11:35 65° 75° (ENE) 659 1.4 -12.0°
Drops below altitude 10° 15:15:47 10° 354° (N) 1,949 4.2 -12.8°
Sets 15:17:59 0° 351° (N) 2,858 5.0 -13.2°
